When you browse on this site, cookies collect data to enhance your experience and personalize the content and advertising you see.
Visit our Privacy Policy to learn more. By continuing to use the site, you agree to this use of cookies and data.
  • In Belgium
  • List of Countries
  • For 7 days
  • Water Temperature
  • Weather Map
  • Weather Widgets
  • user-avatar
    Login

    Hourly Weather Lesnoe

    Today, 5 June, Friday

    Time Temperature Precipitation Wind Pressure Humidity
    00:00 +12°C° 0.1 mm 2 mps 739 mmHg 97%
    01:00 +12°C° 0.1 mm 2 mps 739 mmHg 97%
    02:00 +12°C° 0 mm 2 mps 739 mmHg 98%
    03:00 +11°C° 0.1 mm 3 mps 739 mmHg 97%
    04:00 +11°C° 0.1 mm 3 mps 740 mmHg 97%
    05:00 +11°C° 0.1 mm 3 mps 740 mmHg 96%
    06:00 +12°C° 0 mm 3 mps 740 mmHg 91%
    07:00 +13°C° 0 mm 4 mps 741 mmHg 86%
    08:00 +14°C° 0 mm 4 mps 741 mmHg 80%
    09:00 +15°C° 0.2 mm 4 mps 741 mmHg 74%
    10:00 +18°C° 0.2 mm 4 mps 741 mmHg 68%
    11:00 +19°C° 0.2 mm 4 mps 741 mmHg 62%
    12:00 +19°C° 0.4 mm 4 mps 741 mmHg 62%
    13:00 +19°C° 0.4 mm 4 mps 742 mmHg 61%
    14:00 +19°C° 0.4 mm 4 mps 742 mmHg 61%
    15:00 +19°C° 0.1 mm 3 mps 742 mmHg 63%
    16:00 +19°C° 0.1 mm 3 mps 742 mmHg 64%
    17:00 +19°C° 0.1 mm 3 mps 742 mmHg 66%
    18:00 +17°C° 0 mm 2 mps 742 mmHg 74%
    19:00 +16°C° 0 mm 2 mps 742 mmHg 83%
    20:00 +14°C° 0 mm 1 mps 743 mmHg 91%
    21:00 +13°C° 0 mm 1 mps 743 mmHg 93%
    22:00 +13°C° 0 mm 1 mps 743 mmHg 95%
    23:00 +12°C° 0 mm 1 mps 743 mmHg 97%

    Tomorrow, 6 June, Saturday

    Time Temperature Precipitation Wind Pressure Humidity
    00:00 +11°C° 0 mm 1 mps 743 mmHg 97%
    01:00 +11°C° 0 mm 1 mps 743 mmHg 98%
    02:00 +11°C° 0 mm 1 mps 744 mmHg 98%
    03:00 +10°C° 0 mm 2 mps 744 mmHg 97%
    04:00 +10°C° 0 mm 2 mps 744 mmHg 96%
    05:00 +12°C° 0 mm 2 mps 744 mmHg 95%
    06:00 +13°C° 0 mm 2 mps 744 mmHg 89%
    07:00 +14°C° 0 mm 3 mps 744 mmHg 83%
    08:00 +16°C° 0 mm 3 mps 744 mmHg 77%
    09:00 +18°C° 0 mm 3 mps 744 mmHg 70%
    10:00 +19°C° 0 mm 4 mps 744 mmHg 62%
    11:00 +21°C° 0 mm 4 mps 744 mmHg 55%
    12:00 +22°C° 0 mm 4 mps 744 mmHg 53%
    13:00 +23°C° 0 mm 4 mps 743 mmHg 52%
    14:00 +23°C° 0 mm 4 mps 743 mmHg 50%
    15:00 +22°C° 0.3 mm 4 mps 743 mmHg 61%
    16:00 +21°C° 0.3 mm 4 mps 743 mmHg 71%
    17:00 +20°C° 0.3 mm 4 mps 743 mmHg 82%
    18:00 +19°C° 0.6 mm 4 mps 743 mmHg 87%
    19:00 +18°C° 0.6 mm 3 mps 743 mmHg 91%
    20:00 +17°C° 0.6 mm 2 mps 744 mmHg 96%
    21:00 +17°C° 0 mm 2 mps 744 mmHg 97%
    22:00 +16°C° 0 mm 2 mps 744 mmHg 97%
    23:00 +16°C° 0 mm 2 mps 745 mmHg 98%

    Day after tomorrow, 7 June, Sunday

    Time Temperature Precipitation Wind Pressure Humidity
    00:00 +15°C° 0 mm 2 mps 745 mmHg 98%
    01:00 +15°C° 0 mm 2 mps 746 mmHg 98%
    02:00 +14°C° 0 mm 1 mps 747 mmHg 98%
    03:00 +15°C° 0 mm 2 mps 747 mmHg 97%
    04:00 +15°C° 0 mm 2 mps 748 mmHg 96%
    05:00 +15°C° 0 mm 2 mps 748 mmHg 96%
    06:00 +17°C° 0 mm 2 mps 749 mmHg 88%
    07:00 +19°C° 0 mm 1 mps 749 mmHg 80%
    08:00 +20°C° 0 mm 1 mps 750 mmHg 72%
    09:00 +21°C° 0 mm 2 mps 750 mmHg 62%
    10:00 +23°C° 0 mm 2 mps 750 mmHg 51%
    11:00 +24°C° 0 mm 2 mps 751 mmHg 41%
    12:00 +25°C° 0 mm 2 mps 751 mmHg 40%
    13:00 +25°C° 0 mm 2 mps 751 mmHg 39%
    14:00 +26°C° 0 mm 1 mps 751 mmHg 38%
    15:00 +26°C° 0 mm 1 mps 751 mmHg 41%
    16:00 +26°C° 0 mm 1 mps 751 mmHg 45%
    17:00 +23°C° 0 mm 0 mps 751 mmHg 48%
    18:00 +21°C° 0 mm 0 mps 751 mmHg 55%
    19:00 +19°C° 0 mm 0 mps 751 mmHg 63%
    20:00 +17°C° 0 mm 0 mps 751 mmHg 70%
    21:00 +18°C° 0 mm 1 mps 751 mmHg 72%
    22:00 +16°C° 0 mm 1 mps 751 mmHg 74%
    23:00 +15°C° 0 mm 1 mps 752 mmHg 76%

    8 June, Monday

    Time Temperature Precipitation Wind Pressure Humidity
    00:00 +15°C° 0 mm 1 mps 752 mmHg 77%
    01:00 +15°C° 0 mm 1 mps 752 mmHg 78%
    02:00 +14°C° 0 mm 1 mps 752 mmHg 79%
    03:00 +15°C° 0 mm 1 mps 752 mmHg 79%
    04:00 +16°C° 0 mm 1 mps 752 mmHg 79%
    05:00 +18°C° 0 mm 1 mps 752 mmHg 78%
    06:00 +20°C° 0 mm 1 mps 752 mmHg 74%
    07:00 +20°C° 0 mm 2 mps 752 mmHg 70%
    08:00 +23°C° 0 mm 2 mps 752 mmHg 65%
    09:00 +25°C° 0 mm 2 mps 752 mmHg 61%
    10:00 +26°C° 0 mm 2 mps 752 mmHg 58%
    11:00 +27°C° 0 mm 3 mps 752 mmHg 54%
    12:00 +27°C° 0.2 mm 3 mps 751 mmHg 58%
    13:00 +27°C° 0.2 mm 3 mps 751 mmHg 63%
    14:00 +27°C° 0.2 mm 3 mps 751 mmHg 67%
    15:00 +27°C° 0.5 mm 3 mps 751 mmHg 71%
    16:00 +26°C° 0.5 mm 3 mps 750 mmHg 76%
    17:00 +25°C° 0.5 mm 3 mps 750 mmHg 80%
    18:00 +24°C° 0.1 mm 2 mps 750 mmHg 84%
    19:00 +23°C° 0.1 mm 2 mps 750 mmHg 87%
    20:00 +21°C° 0.1 mm 2 mps 750 mmHg 90%
    21:00 +20°C° 0 mm 2 mps 751 mmHg 92%
    22:00 +19°C° 0 mm 2 mps 751 mmHg 93%
    23:00 +18°C° 0 mm 2 mps 751 mmHg 95%

    9 June, Tuesday

    Time Temperature Precipitation Wind Pressure Humidity
    00:00 +17°C° 0 mm 2 mps 751 mmHg 96%
    01:00 +17°C° 0 mm 2 mps 751 mmHg 96%
    02:00 +17°C° 0 mm 2 mps 751 mmHg 97%
    03:00 +17°C° 0 mm 2 mps 751 mmHg 95%
    04:00 +18°C° 0 mm 2 mps 751 mmHg 93%
    05:00 +18°C° 0 mm 2 mps 751 mmHg 91%
    06:00 +20°C° 0 mm 2 mps 751 mmHg 83%
    07:00 +22°C° 0 mm 3 mps 752 mmHg 76%
    08:00 +24°C° 0 mm 3 mps 752 mmHg 68%
    09:00 +25°C° 0 mm 3 mps 752 mmHg 63%
    10:00 +27°C° 0 mm 3 mps 752 mmHg 59%
    11:00 +28°C° 0 mm 3 mps 752 mmHg 54%
    12:00 +28°C° 0 mm 3 mps 752 mmHg 54%
    13:00 +28°C° 0 mm 3 mps 751 mmHg 53%
    14:00 +28°C° 0 mm 3 mps 751 mmHg 52%
    15:00 +28°C° 0 mm 3 mps 751 mmHg 55%
    16:00 +28°C° 0 mm 3 mps 751 mmHg 57%
    17:00 +27°C° 0 mm 3 mps 751 mmHg 60%
    18:00 +25°C° 0 mm 2 mps 751 mmHg 69%
    19:00 +24°C° 0 mm 2 mps 751 mmHg 78%
    20:00 +21°C° 0 mm 2 mps 751 mmHg 87%
    21:00 +20°C° 0 mm 2 mps 751 mmHg 90%
    22:00 +19°C° 0 mm 2 mps 751 mmHg 93%
    23:00 +19°C° 0 mm 1 mps 751 mmHg 96%

    10 June, Wednesday

    Time Temperature Precipitation Wind Pressure Humidity
    00:00 +18°C° 0 mm 1 mps 751 mmHg 96%
    01:00 +18°C° 0 mm 1 mps 751 mmHg 97%
    02:00 +18°C° 0 mm 1 mps 751 mmHg 97%
    03:00 +18°C° 0 mm 1 mps 751 mmHg 95%
    04:00 +19°C° 0 mm 1 mps 751 mmHg 92%
    05:00 +20°C° 0 mm 1 mps 751 mmHg 90%
    06:00 +21°C° 0 mm 1 mps 751 mmHg 82%
    07:00 +23°C° 0 mm 1 mps 751 mmHg 75%
    08:00 +25°C° 0 mm 1 mps 751 mmHg 67%
    09:00 +26°C° 0 mm 1 mps 751 mmHg 61%
    10:00 +28°C° 0 mm 1 mps 751 mmHg 55%
    11:00 +29°C° 0 mm 1 mps 751 mmHg 50%
    12:00 +29°C° 0 mm 1 mps 751 mmHg 47%
    13:00 +30°C° 0 mm 1 mps 750 mmHg 45%
    14:00 +30°C° 0 mm 1 mps 750 mmHg 43%
    15:00 +30°C° 0 mm 1 mps 750 mmHg 47%
    16:00 +29°C° 0 mm 1 mps 750 mmHg 51%
    17:00 +28°C° 0 mm 1 mps 750 mmHg 55%
    18:00 +26°C° 0 mm 1 mps 749 mmHg 65%
    19:00 +24°C° 0 mm 1 mps 749 mmHg 74%
    20:00 +21°C° 0 mm 2 mps 749 mmHg 84%
    21:00 +20°C° 0 mm 2 mps 749 mmHg 87%
    22:00 +21°C° 0 mm 1 mps 749 mmHg 89%
    23:00 +20°C° 0 mm 1 mps 749 mmHg 91%
    Show more